| time (UTC) | temp F | wind direction | speed MPH | gust MPH | rain 1hr in | rain 24hr in | rain mn in | humidity % | barometer mb |
| 20260505200017 | 56 | 0.0 | 0.0 | 0.00 | 0.00 | 0.00 | 70 | 1014.1 | |
| 20260505195017 | 56 | 0.0 | 3.0 | 0.00 | 0.00 | 0.00 | 69 | 1013.9 | |
| 20260505194017 | 56 | 0.0 | 2.0 | 0.00 | 0.00 | 0.00 | 69 | 1013.7 | |
| 20260505193037 | 57 | 68 | 3.0 | 7.0 | 0.00 | 0.00 | 0.00 | 69 | 1013.7 |
| 20260505192017 | 57 | 45 | 2.0 | 6.0 | 0.00 | 0.00 | 0.00 | 68 | 1013.6 |
| 20260505191017 | 57 | 23 | 3.0 | 8.0 | 0.00 | 0.00 | 0.00 | 68 | 1013.4 |
| 20260505190017 | 58 | 45 | 1.0 | 4.0 | 0.00 | 0.00 | 0.00 | 68 | 1013.2 |
| 20260505185017 | 58 | 68 | 1.0 | 4.0 | 0.00 | 0.00 | 0.00 | 68 | 1013.3 |
| 20260505184017 | 58 | 45 | 2.0 | 4.0 | 0.00 | 0.00 | 0.00 | 68 | 1013.3 |
| 20260505183017 | 58 | 45 | 2.0 | 4.0 | 0.00 | 0.00 | 0.00 | 68 | 1013.3 |
| 20260505182017 | 58 | 45 | 2.0 | 5.0 | 0.00 | 0.00 | 0.00 | 68 | 1013.3 |
| 20260505181017 | 58 | 23 | 1.0 | 4.0 | 0.00 | 0.00 | 0.00 | 69 | 1013.4 |
| 20260505180017 | 58 | 45 | 1.0 | 3.0 | 0.00 | 0.00 | 0.00 | 69 | 1013.3 |
| 20260505175017 | 58 | 0.0 | 0.0 | 0.00 | 0.00 | 0.00 | 71 | 1013.4 | |
| 20260505174017 | 58 | 0.0 | 0.0 | 0.00 | 0.00 | 0.00 | 71 | 1013.3 | |
| 20260505173018 | 59 | 0.0 | 0.0 | 0.00 | 0.00 | 0.00 | 74 | 1013.4 | |
| 20260505172017 | 58 | 0.0 | 0.0 | 0.00 | 0.00 | 0.00 | 70 | 1013.5 | |
| 20260505171017 | 59 | 0.0 | 0.0 | 0.00 | 0.00 | 0.00 | 70 | 1013.5 | |
| 20260505170057 | 59 | 0.0 | 1.0 | 0.00 | 0.00 | 0.00 | 69 | 1013.6 | |
| 20260505165017 | 59 | 0.0 | 0.0 | 0.00 | 0.00 | 0.00 | 68 | 1013.6 | |
| 20260505164017 | 59 | 0.0 | 0.0 | 0.00 | 0.00 | 0.00 | 69 | 1013.7 | |
| 20260505163017 | 59 | 0.0 | 0.0 | 0.00 | 0.00 | 0.00 | 69 | 1013.7 | |
| 20260505162017 | 59 | 135 | 1.0 | 4.0 | 0.00 | 0.00 | 0.00 | 69 | 1013.7 |
| 20260505161017 | 59 | 135 | 1.0 | 4.0 | 0.00 | 0.00 | 0.00 | 69 | 1013.6 |
| 20260505153017 | 59 | 0.0 | 0.0 | 0.00 | 0.00 | 0.00 | 71 | 1013.8 | |
| 20260505152017 | 59 | 0.0 | 0.0 | 0.00 | 0.00 | 0.00 | 70 | 1013.9 | |
| 20260505151037 | 59 | 0.0 | 0.0 | 0.00 | 0.00 | 0.00 | 70 | 1013.9 | |
| 20260505125016 | 58 | 90 | 1.0 | 4.0 | 0.00 | 0.00 | 0.00 | 76 | 1014.3 |
| 20260505124037 | 57 | 90 | 1.0 | 3.0 | 0.00 | 0.00 | 0.00 | 77 | 1014.4 |
| 20260505123016 | 57 | 135 | 2.0 | 6.0 | 0.00 | 0.00 | 0.00 | 78 | 1014.3 |
| 20260505122017 | 57 | 135 | 2.0 | 5.0 | 0.00 | 0.00 | 0.00 | 78 | 1014.3 |
| 20260505121017 | 57 | 135 | 2.0 | 4.0 | 0.00 | 0.00 | 0.00 | 78 | 1014.3 |
| 20260505120017 | 58 | 113 | 1.0 | 4.0 | 0.00 | 0.00 | 0.00 | 78 | 1014.4 |
| 20260505115017 | 58 | 45 | 1.0 | 3.0 | 0.00 | 0.00 | 0.00 | 78 | 1014.5 |
| 20260505114017 | 57 | 135 | 1.0 | 5.0 | 0.00 | 0.00 | 0.00 | 77 | 1014.6 |
| 20260505113017 | 58 | 90 | 1.0 | 5.0 | 0.00 | 0.00 | 0.00 | 75 | 1014.7 |
| 20260505112016 | 59 | 45 | 2.0 | 5.0 | 0.00 | 0.00 | 0.00 | 76 | 1014.6 |
| 20260505111016 | 59 | 338 | 1.0 | 5.0 | 0.00 | 0.00 | 0.00 | 74 | 1014.8 |
| 20260505102016 | 57 | 45 | 2.0 | 6.0 | 0.00 | 0.00 | 0.00 | 78 | 1014.8 |
| 20260505101017 | 56 | 23 | 3.0 | 7.0 | 0.00 | 0.00 | 0.00 | 78 | 1014.8 |
| 20260505100036 | 58 | 45 | 3.0 | 5.0 | 0.00 | 0.00 | 0.00 | 77 | 1015.0 |
| 20260505095016 | 57 | 23 | 2.0 | 5.0 | 0.00 | 0.00 | 0.00 | 77 | 1014.9 |
| 20260505094036 | 57 | 45 | 3.0 | 6.0 | 0.00 | 0.00 | 0.00 | 78 | 1014.9 |
| 20260505093016 | 58 | 23 | 3.0 | 8.0 | 0.00 | 0.00 | 0.00 | 76 | 1014.9 |
| 20260505092016 | 57 | 45 | 4.0 | 8.0 | 0.00 | 0.00 | 0.00 | 78 | 1015.0 |
| 20260505091016 | 57 | 23 | 3.0 | 7.0 | 0.00 | 0.00 | 0.00 | 77 | 1014.8 |
| 20260505090016 | 57 | 45 | 2.0 | 8.0 | 0.00 | 0.00 | 0.00 | 77 | 1014.9 |
| 20260505085016 | 56 | 45 | 3.0 | 8.0 | 0.00 | 0.00 | 0.00 | 78 | 1014.9 |
| 20260505084017 | 55 | 45 | 2.0 | 6.0 | 0.00 | 0.00 | 0.00 | 79 | 1014.8 |
| 20260505083016 | 55 | 23 | 2.0 | 7.0 | 0.00 | 0.00 | 0.00 | 79 | 1014.8 |
| 20260505082016 | 55 | 45 | 3.0 | 7.0 | 0.00 | 0.00 | 0.00 | 79 | 1014.9 |
| 20260505081036 | 55 | 45 | 3.0 | 8.0 | 0.00 | 0.00 | 0.00 | 79 | 1014.8 |
| 20260505080016 | 55 | 23 | 3.0 | 7.0 | 0.00 | 0.00 | 0.00 | 79 | 1014.8 |
| 20260505075036 | 55 | 23 | 2.0 | 5.0 | 0.00 | 0.00 | 0.00 | 79 | 1014.8 |
| 20260505074016 | 55 | 23 | 2.0 | 4.0 | 0.00 | 0.00 | 0.00 | 80 | 1014.8 |
| 20260505073016 | 55 | 23 | 2.0 | 5.0 | 0.00 | 0.00 | 0.00 | 80 | 1014.8 |
| 20260505072016 | 54 | 45 | 3.0 | 8.0 | 0.00 | 0.00 | 0.00 | 79 | 1014.8 |
| 20260505071016 | 54 | 45 | 3.0 | 6.0 | 0.00 | 0.00 | 0.00 | 79 | 1014.8 |
| 20260505070016 | 54 | 23 | 2.0 | 6.0 | 0.00 | 0.00 | 0.00 | 79 | 1014.9 |
| 20260505065016 | 54 | 45 | 3.0 | 7.0 | 0.00 | 0.00 | 0.00 | 80 | 1014.8 |
| 20260505064016 | 54 | 68 | 2.0 | 5.0 | 0.00 | 0.00 | 0.00 | 81 | 1014.8 |
| 20260505063016 | 54 | 45 | 2.0 | 4.0 | 0.00 | 0.00 | 0.00 | 82 | 1014.8 |
| 20260505062016 | 53 | 45 | 2.0 | 7.0 | 0.00 | 0.00 | 0.00 | 83 | 1014.7 |
| 20260505061016 | 53 | 45 | 2.0 | 4.0 | 0.00 | 0.00 | 0.00 | 84 | 1014.5 |
| 20260505060016 | 53 | 0.0 | 2.0 | 0.00 | 0.00 | 0.00 | 84 | 1014.6 | |
| 20260505055016 | 53 | 45 | 1.0 | 3.0 | 0.00 | 0.00 | 0.00 | 84 | 1014.6 |
| 20260505054036 | 53 | 45 | 1.0 | 4.0 | 0.00 | 0.00 | 0.00 | 84 | 1014.5 |
| 20260505053036 | 53 | 45 | 1.0 | 3.0 | 0.00 | 0.00 | 0.00 | 84 | 1014.5 |
| 20260505052016 | 53 | 45 | 1.0 | 4.0 | 0.00 | 0.00 | 0.00 | 84 | 1014.4 |
| 20260505051016 | 53 | 45 | 1.0 | 3.0 | 0.00 | 0.00 | 0.00 | 84 | 1014.5 |
| 20260505041036 | 54 | 45 | 1.0 | 3.0 | 0.00 | 0.00 | 0.00 | 85 | 1014.5 |
| 20260505040016 | 54 | 68 | 1.0 | 2.0 | 0.00 | 0.00 | 0.00 | 85 | 1014.5 |
| 20260505035016 | 54 | 0.0 | 2.0 | 0.00 | 0.00 | 0.00 | 85 | 1014.6 | |
| 20260505034036 | 54 | 0.0 | 2.0 | 0.00 | 0.00 | 0.00 | 85 | 1014.6 | |
| 20260505033016 | 54 | 68 | 1.0 | 2.0 | 0.00 | 0.00 | 0.00 | 84 | 1014.7 |
| 20260505032036 | 54 | 68 | 1.0 | 4.0 | 0.00 | 0.00 | 0.00 | 84 | 1014.7 |
| 20260505031016 | 54 | 45 | 1.0 | 4.0 | 0.00 | 0.00 | 0.00 | 85 | 1014.7 |
| 20260505030016 | 54 | 45 | 1.0 | 4.0 | 0.00 | 0.00 | 0.00 | 85 | 1014.7 |
| 20260505025016 | 54 | 0.0 | 1.0 | 0.00 | 0.00 | 0.00 | 85 | 1014.6 | |
| 20260505024016 | 54 | 45 | 1.0 | 3.0 | 0.00 | 0.00 | 0.00 | 85 | 1014.6 |
| 20260505023016 | 54 | 45 | 1.0 | 4.0 | 0.00 | 0.00 | 0.00 | 85 | 1014.7 |
| 20260505022016 | 54 | 45 | 1.0 | 3.0 | 0.00 | 0.00 | 0.00 | 85 | 1014.7 |
| 20260505021016 | 54 | 45 | 1.0 | 4.0 | 0.00 | 0.00 | 0.00 | 85 | 1014.7 |
| 20260505020036 | 54 | 45 | 1.0 | 3.0 | 0.00 | 0.00 | 0.00 | 84 | 1014.7 |
| 20260505015036 | 54 | 68 | 1.0 | 5.0 | 0.00 | 0.00 | 0.00 | 84 | 1014.8 |
| 20260505014015 | 55 | 45 | 1.0 | 3.0 | 0.00 | 0.00 | 0.00 | 84 | 1014.8 |
| 20260505013016 | 55 | 45 | 1.0 | 3.0 | 0.00 | 0.00 | 0.00 | 84 | 1014.9 |
| 20260505012016 | 55 | 23 | 2.0 | 4.0 | 0.00 | 0.00 | 0.00 | 85 | 1015.1 |
| 20260505011016 | 55 | 23 | 1.0 | 3.0 | 0.00 | 0.00 | 0.00 | 85 | 1015.1 |
| 20260505010016 | 55 | 45 | 1.0 | 3.0 | 0.00 | 0.00 | 0.00 | 85 | 1015.1 |
| 20260505005016 | 55 | 45 | 1.0 | 3.0 | 0.00 | 0.00 | 0.00 | 85 | 1015.2 |
| 20260505004016 | 55 | 45 | 1.0 | 3.0 | 0.00 | 0.00 | 0.00 | 85 | 1015.3 |
| 20260505003015 | 55 | 45 | 1.0 | 3.0 | 0.00 | 0.00 | 0.00 | 85 | 1015.2 |
| 20260505002015 | 55 | 45 | 1.0 | 3.0 | 0.00 | 0.00 | 0.00 | 85 | 1015.3 |
| 20260505001016 | 55 | 45 | 1.0 | 3.0 | 0.00 | 0.00 | 0.00 | 85 | 1015.4 |
| 20260505000016 | 55 | 0.0 | 2.0 | 0.00 | 0.00 | 0.00 | 85 | 1015.4 | |
| 20260504235015 | 55 | 0.0 | 0.0 | 0.00 | 0.00 | 0.00 | 85 | 1015.3 | |
| 20260504234016 | 54 | 0.0 | 0.0 | 0.00 | 0.00 | 0.00 | 85 | 1015.4 | |
| 20260504233015 | 54 | 0.0 | 0.0 | 0.00 | 0.00 | 0.00 | 85 | 1015.4 | |
| 20260504232036 | 54 | 0.0 | 0.0 | 0.00 | 0.00 | 0.00 | 84 | 1015.3 | |
| 20260504231015 | 54 | 0.0 | 0.0 | 0.00 | 0.00 | 0.00 | 84 | 1015.3 | |
| 20260504230016 | 54 | 0.0 | 0.0 | 0.00 | 0.00 | 0.00 | 83 | 1015.4 | |
| 20260504225017 | 54 | 0.0 | 0.0 | 0.00 | 0.00 | 0.00 | 82 | 1015.3 | |
| 20260504224017 | 54 | 0.0 | 0.0 | 0.00 | 0.00 | 0.00 | 81 | 1015.3 | |
| 20260504223017 | 53 | 0.0 | 0.0 | 0.00 | 0.00 | 0.00 | 80 | 1015.4 | |
| 20260504222017 | 53 | 0.0 | 0.0 | 0.00 | 0.00 | 0.00 | 80 | 1015.5 | |
| 20260504221037 | 53 | 0.0 | 0.0 | 0.00 | 0.00 | 0.00 | 80 | 1015.5 | |
| 20260504220017 | 53 | 0.0 | 0.0 | 0.00 | 0.00 | 0.00 | 80 | 1015.6 | |
| 20260504215017 | 53 | 0.0 | 0.0 | 0.00 | 0.00 | 0.00 | 80 | 1015.5 | |
| 20260504214017 | 54 | 0.0 | 0.0 | 0.00 | 0.00 | 0.00 | 81 | 1015.4 | |
| 20260504213017 | 54 | 0.0 | 0.0 | 0.00 | 0.00 | 0.00 | 81 | 1015.4 | |
| 20260504212037 | 54 | 0.0 | 0.0 | 0.00 | 0.00 | 0.00 | 82 | 1015.4 | |
| 20260504211017 | 54 | 0.0 | 0.0 | 0.00 | 0.00 | 0.00 | 83 | 1015.4 | |
| 20260504210057 | 54 | 0.0 | 0.0 | 0.00 | 0.00 | 0.00 | 83 | 1015.5 | |
| 20260504205017 | 54 | 0.0 | 0.0 | 0.00 | 0.00 | 0.00 | 84 | 1015.4 | |
| 20260504204017 | 55 | 0.0 | 0.0 | 0.00 | 0.00 | 0.00 | 84 | 1015.4 | |
| 20260504203017 | 55 | 0.0 | 0.0 | 0.00 | 0.00 | 0.00 | 83 | 1015.2 | |
| 20260504202017 | 55 | 0.0 | 0.0 | 0.00 | 0.00 | 0.00 | 83 | 1015.2 | |
| 20260504201017 | 56 | 0.0 | 0.0 | 0.00 | 0.00 | 0.00 | 82 | 1015.2 |